Year,Month,Day,Hour,Minute,Value (Times are PST for temperature in C)
2015,06,14,00,00,13.80
2015,06,14,00,01,13.80
2015,06,14,00,02,13.80
2015,06,14,00,03,13.80
2015,06,14,00,04,13.80
2015,06,14,00,05,13.80
2015,06,14,00,06,13.70
2015,06,14,00,07,13.70
2015,06,14,00,08,13.70
2015,06,14,00,09,13.70
2015,06,14,00,10,13.70
2015,06,14,00,11,13.70
2015,06,14,00,12,13.70
2015,06,14,00,13,13.70
2015,06,14,00,14,13.70
2015,06,14,00,15,13.70
2015,06,14,00,16,13.70
2015,06,14,00,17,13.70
2015,06,14,00,18,13.60
2015,06,14,00,19,13.60
2015,06,14,00,20,13.60
2015,06,14,00,21,13.60
2015,06,14,00,22,13.50
2015,06,14,00,23,13.50
2015,06,14,00,24,13.40
2015,06,14,00,25,13.40
2015,06,14,00,26,13.40
2015,06,14,00,27,13.40
2015,06,14,00,28,13.30
2015,06,14,00,29,13.30
2015,06,14,00,30,13.30
2015,06,14,00,31,13.30
2015,06,14,00,32,13.30
2015,06,14,00,33,13.30
2015,06,14,00,34,13.30
2015,06,14,00,35,13.30
2015,06,14,00,36,13.40
2015,06,14,00,37,13.40
2015,06,14,00,38,13.40
2015,06,14,00,39,13.40
2015,06,14,00,40,13.40
2015,06,14,00,41,13.30
2015,06,14,00,42,13.30
2015,06,14,00,43,13.30
2015,06,14,00,44,13.20
2015,06,14,00,45,13.20
2015,06,14,00,46,13.10
2015,06,14,00,47,13.10
2015,06,14,00,48,13.10
2015,06,14,00,49,13.00
2015,06,14,00,50,13.00
2015,06,14,00,51,12.90
2015,06,14,00,52,12.90
2015,06,14,00,53,12.90
2015,06,14,00,54,12.80
2015,06,14,00,55,12.80
2015,06,14,00,56,12.80
2015,06,14,00,57,12.70
2015,06,14,00,58,12.70
2015,06,14,00,59,12.70
2015,06,14,01,00,12.60
2015,06,14,01,01,12.60
2015,06,14,01,02,12.60
2015,06,14,01,03,12.60
2015,06,14,01,04,12.50
2015,06,14,01,05,12.50
2015,06,14,01,06,12.50
2015,06,14,01,07,12.40
2015,06,14,01,08,12.40
2015,06,14,01,09,12.40
2015,06,14,01,10,12.40
2015,06,14,01,11,12.30
2015,06,14,01,12,12.30
2015,06,14,01,13,12.30
2015,06,14,01,14,12.30
2015,06,14,01,15,12.20
2015,06,14,01,16,12.20
2015,06,14,01,17,12.10
2015,06,14,01,18,12.10
2015,06,14,01,19,12.10
2015,06,14,01,20,12.00
2015,06,14,01,21,12.00
2015,06,14,01,22,11.90
2015,06,14,01,23,11.90
2015,06,14,01,24,11.90
2015,06,14,01,25,11.80
2015,06,14,01,26,11.80
2015,06,14,01,27,11.80
2015,06,14,01,28,11.80
2015,06,14,01,29,11.70
2015,06,14,01,30,11.70
2015,06,14,01,31,11.70
2015,06,14,01,32,11.70
2015,06,14,01,33,11.70
2015,06,14,01,34,11.70
2015,06,14,01,35,11.70
2015,06,14,01,36,11.60
2015,06,14,01,37,11.60
2015,06,14,01,38,11.60
2015,06,14,01,39,11.60
2015,06,14,01,40,11.50
2015,06,14,01,41,11.50
2015,06,14,01,42,11.50
2015,06,14,01,43,11.40
2015,06,14,01,44,11.40
2015,06,14,01,45,11.40
2015,06,14,01,46,11.30
2015,06,14,01,47,11.30
2015,06,14,01,48,11.30
2015,06,14,01,49,11.30
2015,06,14,01,50,11.30
2015,06,14,01,51,11.20
2015,06,14,01,52,11.20
2015,06,14,01,53,11.20
2015,06,14,01,54,11.20
2015,06,14,01,55,11.20
2015,06,14,01,56,11.20
2015,06,14,01,57,11.20
2015,06,14,01,58,11.20
2015,06,14,01,59,11.20
2015,06,14,02,00,11.10
2015,06,14,02,01,11.10
2015,06,14,02,02,11.10
2015,06,14,02,03,11.10
2015,06,14,02,04,11.10
2015,06,14,02,05,11.00
2015,06,14,02,06,11.00
2015,06,14,02,07,11.00
2015,06,14,02,08,11.00
2015,06,14,02,09,11.00
2015,06,14,02,10,11.00
2015,06,14,02,11,10.90
2015,06,14,02,12,10.90
2015,06,14,02,13,10.90
2015,06,14,02,14,10.90
2015,06,14,02,15,10.90
2015,06,14,02,16,10.90
2015,06,14,02,17,10.90
2015,06,14,02,18,10.90
2015,06,14,02,19,10.80
2015,06,14,02,20,10.80
2015,06,14,02,21,10.80
2015,06,14,02,22,10.80
2015,06,14,02,23,10.80
2015,06,14,02,24,10.80
2015,06,14,02,25,10.70
2015,06,14,02,26,10.70
2015,06,14,02,27,10.70
2015,06,14,02,28,10.70
2015,06,14,02,29,10.70
2015,06,14,02,30,10.70
2015,06,14,02,31,10.70
2015,06,14,02,32,10.60
2015,06,14,02,33,10.60
2015,06,14,02,34,10.60
2015,06,14,02,35,10.60
2015,06,14,02,36,10.50
2015,06,14,02,37,10.50
2015,06,14,02,38,10.50
2015,06,14,02,39,10.40
2015,06,14,02,40,10.40
2015,06,14,02,41,10.40
2015,06,14,02,42,10.40
2015,06,14,02,43,10.30
2015,06,14,02,44,10.30
2015,06,14,02,45,10.30
2015,06,14,02,46,10.30
2015,06,14,02,47,10.30
2015,06,14,02,48,10.30
2015,06,14,02,49,10.30
2015,06,14,02,50,10.20
2015,06,14,02,51,10.20
2015,06,14,02,52,10.20
2015,06,14,02,53,10.20
2015,06,14,02,54,10.10
2015,06,14,02,55,10.10
2015,06,14,02,56,10.10
2015,06,14,02,57,10.10
2015,06,14,02,58,10.10
2015,06,14,02,59,10.10
2015,06,14,03,00,10.10
2015,06,14,03,01,10.10
2015,06,14,03,02,10.10
2015,06,14,03,03,10.00
2015,06,14,03,04,10.00
2015,06,14,03,05,10.00
2015,06,14,03,06,10.00
2015,06,14,03,07,10.00
2015,06,14,03,08,10.00
2015,06,14,03,09,9.90
2015,06,14,03,10,9.90
2015,06,14,03,11,9.90
2015,06,14,03,12,9.90
2015,06,14,03,13,9.90
2015,06,14,03,14,9.90
2015,06,14,03,15,9.90
2015,06,14,03,16,9.90
2015,06,14,03,17,9.90
2015,06,14,03,18,9.90
2015,06,14,03,19,9.90
2015,06,14,03,20,9.90
2015,06,14,03,21,9.80
2015,06,14,03,22,9.80
2015,06,14,03,23,9.80
2015,06,14,03,24,9.80
2015,06,14,03,25,9.80
2015,06,14,03,26,9.80
2015,06,14,03,27,9.80
2015,06,14,03,28,9.80
2015,06,14,03,29,9.80
2015,06,14,03,30,9.80
2015,06,14,03,31,9.70
2015,06,14,03,32,9.70
2015,06,14,03,33,9.70
2015,06,14,03,34,9.70
2015,06,14,03,35,9.70
2015,06,14,03,36,9.60
2015,06,14,03,37,9.60
2015,06,14,03,38,9.60
2015,06,14,03,39,9.60
2015,06,14,03,40,9.60
2015,06,14,03,41,9.60
2015,06,14,03,42,9.60
2015,06,14,03,43,9.60
2015,06,14,03,44,9.60
2015,06,14,03,45,9.60
2015,06,14,03,46,9.60
2015,06,14,03,47,9.60
2015,06,14,03,48,9.60
2015,06,14,03,49,9.60
2015,06,14,03,50,9.60
2015,06,14,03,51,9.60
2015,06,14,03,52,9.60
2015,06,14,03,53,9.60
2015,06,14,03,54,9.60
2015,06,14,03,55,9.50
2015,06,14,03,56,9.50
2015,06,14,03,57,9.50
2015,06,14,03,58,9.50
2015,06,14,03,59,9.40
2015,06,14,04,00,9.40
2015,06,14,04,01,9.40
2015,06,14,04,02,9.40
2015,06,14,04,03,9.40
2015,06,14,04,04,9.40
2015,06,14,04,05,9.40
2015,06,14,04,06,9.40
2015,06,14,04,07,9.40
2015,06,14,04,08,9.50
2015,06,14,04,09,9.50
2015,06,14,04,10,9.50
2015,06,14,04,11,9.60
2015,06,14,04,12,9.60
2015,06,14,04,13,9.60
2015,06,14,04,14,9.60
2015,06,14,04,15,9.60
2015,06,14,04,16,9.60
2015,06,14,04,17,9.60
2015,06,14,04,18,9.60
2015,06,14,04,19,9.60
2015,06,14,04,20,9.50
2015,06,14,04,21,9.50
2015,06,14,04,22,9.50
2015,06,14,04,23,9.50
2015,06,14,04,24,9.50
2015,06,14,04,25,9.50
2015,06,14,04,26,9.40
2015,06,14,04,27,9.40
2015,06,14,04,28,9.40
2015,06,14,04,29,9.40
2015,06,14,04,30,9.40
2015,06,14,04,31,9.40
2015,06,14,04,32,9.40
2015,06,14,04,33,9.40
2015,06,14,04,34,9.40
2015,06,14,04,35,9.40
2015,06,14,04,36,9.40
2015,06,14,04,37,9.40
2015,06,14,04,38,9.40
2015,06,14,04,39,9.30
2015,06,14,04,40,9.30
2015,06,14,04,41,9.30
2015,06,14,04,42,9.30
2015,06,14,04,43,9.40
2015,06,14,04,44,9.40
2015,06,14,04,45,9.40
2015,06,14,04,46,9.40
2015,06,14,04,47,9.40
2015,06,14,04,48,9.40
2015,06,14,04,49,9.40
2015,06,14,04,50,9.40
2015,06,14,04,51,9.40
2015,06,14,04,52,9.40
2015,06,14,04,53,9.40
2015,06,14,04,54,9.30
2015,06,14,04,55,9.30
2015,06,14,04,56,9.30
2015,06,14,04,57,9.30
2015,06,14,04,58,9.30
2015,06,14,04,59,9.30
2015,06,14,05,00,9.20
2015,06,14,05,01,9.20
2015,06,14,05,02,9.20
2015,06,14,05,03,9.20
2015,06,14,05,04,9.20
2015,06,14,05,05,9.20
2015,06,14,05,06,9.20
2015,06,14,05,07,9.20
2015,06,14,05,08,9.20
2015,06,14,05,09,9.30
2015,06,14,05,10,9.30
2015,06,14,05,11,9.30
2015,06,14,05,12,9.20
2015,06,14,05,13,9.20
2015,06,14,05,14,9.20
2015,06,14,05,15,9.20
2015,06,14,05,16,9.20
2015,06,14,05,17,9.20
2015,06,14,05,18,9.20
2015,06,14,05,19,9.20
2015,06,14,05,20,9.20
2015,06,14,05,21,9.20
2015,06,14,05,22,9.20
2015,06,14,05,23,9.20
2015,06,14,05,24,9.10
2015,06,14,05,25,9.10
2015,06,14,05,26,9.10
2015,06,14,05,27,9.10
2015,06,14,05,28,9.10
2015,06,14,05,29,9.00
2015,06,14,05,30,9.00
2015,06,14,05,31,9.10
2015,06,14,05,32,9.10
2015,06,14,05,33,9.10
2015,06,14,05,34,9.10
2015,06,14,05,35,9.10
2015,06,14,05,36,9.10
2015,06,14,05,37,9.10
2015,06,14,05,38,9.10
2015,06,14,05,39,9.10
2015,06,14,05,40,9.10
2015,06,14,05,41,9.10
2015,06,14,05,42,9.20
2015,06,14,05,43,9.20
2015,06,14,05,44,9.20
2015,06,14,05,45,9.20
2015,06,14,05,46,9.20
2015,06,14,05,47,9.30
2015,06,14,05,48,9.30
2015,06,14,05,49,9.30
2015,06,14,05,50,9.30
2015,06,14,05,51,9.30
2015,06,14,05,52,9.40
2015,06,14,05,53,9.40
2015,06,14,05,54,9.50
2015,06,14,05,55,9.50
2015,06,14,05,56,9.60
2015,06,14,05,57,9.60
2015,06,14,05,58,9.70
2015,06,14,05,59,9.70
2015,06,14,06,00,9.80
2015,06,14,06,01,9.80
2015,06,14,06,02,9.90
2015,06,14,06,03,9.90
2015,06,14,06,04,10.00
2015,06,14,06,05,10.10
2015,06,14,06,06,10.10
2015,06,14,06,07,10.20
2015,06,14,06,08,10.30
2015,06,14,06,09,10.40
2015,06,14,06,10,10.40
2015,06,14,06,11,10.50
2015,06,14,06,12,10.50
2015,06,14,06,13,10.60
2015,06,14,06,14,10.70
2015,06,14,06,15,10.70
2015,06,14,06,16,10.80
2015,06,14,06,17,10.80
2015,06,14,06,18,10.90
2015,06,14,06,19,11.00
2015,06,14,06,20,11.10
2015,06,14,06,21,11.20
2015,06,14,06,22,11.20
2015,06,14,06,23,11.30
2015,06,14,06,24,11.40
2015,06,14,06,25,11.50
2015,06,14,06,26,11.50
2015,06,14,06,27,11.60
2015,06,14,06,28,11.70
2015,06,14,06,29,11.80
2015,06,14,06,30,11.80
2015,06,14,06,31,11.90
2015,06,14,06,32,12.00
2015,06,14,06,33,12.00
2015,06,14,06,34,12.10
2015,06,14,06,35,12.20
2015,06,14,06,36,12.30
2015,06,14,06,37,12.40
2015,06,14,06,38,12.40
2015,06,14,06,39,12.50
2015,06,14,06,40,12.60
2015,06,14,06,41,12.70
2015,06,14,06,42,12.70
2015,06,14,06,43,12.80
2015,06,14,06,44,12.90
2015,06,14,06,45,12.90
2015,06,14,06,46,13.00
2015,06,14,06,47,13.00
2015,06,14,06,48,13.10
2015,06,14,06,49,13.20
2015,06,14,06,50,13.30
2015,06,14,06,51,13.30
2015,06,14,06,52,13.40
2015,06,14,06,53,13.50
2015,06,14,06,54,13.50
2015,06,14,06,55,13.60
2015,06,14,06,56,13.70
2015,06,14,06,57,13.80
2015,06,14,06,58,13.80
2015,06,14,06,59,13.90
2015,06,14,07,00,14.00
2015,06,14,07,01,14.10
2015,06,14,07,02,14.20
2015,06,14,07,03,14.20
2015,06,14,07,04,14.30
2015,06,14,07,05,14.40
2015,06,14,07,06,14.50
2015,06,14,07,07,14.50
2015,06,14,07,08,14.60
2015,06,14,07,09,14.70
2015,06,14,07,10,14.70
2015,06,14,07,11,14.80
2015,06,14,07,12,14.90
2015,06,14,07,13,15.00
2015,06,14,07,14,15.00
2015,06,14,07,15,15.00
2015,06,14,07,16,15.20
2015,06,14,07,17,15.30
2015,06,14,07,18,15.30
2015,06,14,07,19,15.40
2015,06,14,07,20,15.50
2015,06,14,07,21,15.60
2015,06,14,07,22,15.70
2015,06,14,07,23,15.70
2015,06,14,07,24,15.80
2015,06,14,07,25,15.90
2015,06,14,07,26,16.00
2015,06,14,07,27,16.20
2015,06,14,07,28,16.30
2015,06,14,07,29,16.30
2015,06,14,07,30,16.40
2015,06,14,07,31,16.50
2015,06,14,07,32,16.60
2015,06,14,07,33,16.60
2015,06,14,07,34,16.70
2015,06,14,07,35,16.70
2015,06,14,07,36,16.70
2015,06,14,07,37,16.80
2015,06,14,07,38,16.80
2015,06,14,07,39,16.80
2015,06,14,07,40,16.90
2015,06,14,07,41,17.00
2015,06,14,07,42,17.00
2015,06,14,07,43,17.10
2015,06,14,07,44,17.10
2015,06,14,07,45,17.10
2015,06,14,07,46,17.10
2015,06,14,07,47,17.10
2015,06,14,07,48,17.10
2015,06,14,07,49,17.10
2015,06,14,07,50,17.10
2015,06,14,07,51,17.10
2015,06,14,07,52,17.10
2015,06,14,07,53,17.10
2015,06,14,07,54,17.10
2015,06,14,07,55,17.00
2015,06,14,07,56,17.00
2015,06,14,07,57,16.90
2015,06,14,07,58,17.00
2015,06,14,07,59,17.00
2015,06,14,08,00,17.00
2015,06,14,08,01,17.00
2015,06,14,08,02,17.00
2015,06,14,08,03,17.10
2015,06,14,08,04,17.10
2015,06,14,08,05,17.10
2015,06,14,08,06,17.10
2015,06,14,08,07,17.10
2015,06,14,08,08,17.10
2015,06,14,08,09,17.10
2015,06,14,08,10,17.10
2015,06,14,08,11,17.10
2015,06,14,08,12,17.10
2015,06,14,08,13,17.10
2015,06,14,08,14,17.10
2015,06,14,08,15,17.10
2015,06,14,08,16,17.20
2015,06,14,08,17,17.20
2015,06,14,08,18,17.30
2015,06,14,08,19,17.30
2015,06,14,08,20,17.30
2015,06,14,08,21,17.30
2015,06,14,08,22,17.30
2015,06,14,08,23,17.40
2015,06,14,08,24,17.40
2015,06,14,08,25,17.40
2015,06,14,08,26,17.50
2015,06,14,08,27,17.50
2015,06,14,08,28,17.50
2015,06,14,08,29,17.50
2015,06,14,08,30,17.60
2015,06,14,08,31,17.60
2015,06,14,08,32,17.50
2015,06,14,08,33,17.60
2015,06,14,08,34,17.60
2015,06,14,08,35,17.60
2015,06,14,08,36,17.60
2015,06,14,08,37,17.60
2015,06,14,08,38,17.60
2015,06,14,08,39,17.60
2015,06,14,08,40,17.60
2015,06,14,08,41,17.60
2015,06,14,08,42,17.60
2015,06,14,08,43,17.70
2015,06,14,08,44,17.70
2015,06,14,08,45,17.70
2015,06,14,08,46,17.70
2015,06,14,08,47,17.70
2015,06,14,08,48,17.70
2015,06,14,08,49,17.70
2015,06,14,08,50,17.70
2015,06,14,08,51,17.70
2015,06,14,08,52,17.70
2015,06,14,08,53,17.70
2015,06,14,08,54,17.70
2015,06,14,08,55,17.70
2015,06,14,08,56,17.60
2015,06,14,08,57,17.70
2015,06,14,08,58,17.70
2015,06,14,08,59,17.70
2015,06,14,09,00,17.80
2015,06,14,09,01,17.90
2015,06,14,09,02,17.90
2015,06,14,09,03,18.00
2015,06,14,09,04,18.00
2015,06,14,09,05,18.10
2015,06,14,09,06,18.10
2015,06,14,09,07,18.10
2015,06,14,09,08,18.10
2015,06,14,09,09,18.20
2015,06,14,09,10,18.10
2015,06,14,09,11,18.10
2015,06,14,09,12,18.10
2015,06,14,09,13,18.10
2015,06,14,09,14,18.00
2015,06,14,09,15,18.00
2015,06,14,09,16,18.00
2015,06,14,09,17,17.90
2015,06,14,09,18,17.90
2015,06,14,09,19,18.00
2015,06,14,09,20,18.00
2015,06,14,09,21,18.00
2015,06,14,09,22,18.10
2015,06,14,09,23,18.10
2015,06,14,09,24,18.10
2015,06,14,09,25,18.10
2015,06,14,09,26,18.10
2015,06,14,09,27,18.00
2015,06,14,09,28,18.00
2015,06,14,09,29,17.90
2015,06,14,09,30,17.90
2015,06,14,09,31,17.90
2015,06,14,09,32,17.90
2015,06,14,09,33,17.90
2015,06,14,09,34,17.90
2015,06,14,09,35,18.00
2015,06,14,09,36,18.00
2015,06,14,09,37,18.10
2015,06,14,09,38,18.10
2015,06,14,09,39,18.20
2015,06,14,09,40,18.20
2015,06,14,09,41,18.20
2015,06,14,09,42,18.20
2015,06,14,09,43,18.30
2015,06,14,09,44,18.30
2015,06,14,09,45,18.30
2015,06,14,09,46,18.40
2015,06,14,09,47,18.40
2015,06,14,09,48,18.50
2015,06,14,09,49,18.50
2015,06,14,09,50,18.70
2015,06,14,09,51,18.70
2015,06,14,09,52,18.80
2015,06,14,09,53,18.90
2015,06,14,09,54,19.00
2015,06,14,09,55,19.00
2015,06,14,09,56,19.10
2015,06,14,09,57,19.10
2015,06,14,09,58,19.20
2015,06,14,09,59,19.20
2015,06,14,10,00,19.20
2015,06,14,10,01,19.20
2015,06,14,10,02,19.20
2015,06,14,10,03,19.20
2015,06,14,10,04,19.20
2015,06,14,10,05,19.20
2015,06,14,10,06,19.20
2015,06,14,10,07,19.30
2015,06,14,10,08,19.30
2015,06,14,10,09,19.40
2015,06,14,10,10,19.40
2015,06,14,10,11,19.40
2015,06,14,10,12,19.50
2015,06,14,10,13,19.60
2015,06,14,10,14,19.60
2015,06,14,10,15,19.60
2015,06,14,10,16,19.60
2015,06,14,10,17,19.60
2015,06,14,10,18,19.60
2015,06,14,10,19,19.60
2015,06,14,10,20,19.60
2015,06,14,10,21,19.50
2015,06,14,10,22,19.50
2015,06,14,10,23,19.40
2015,06,14,10,24,19.30
2015,06,14,10,25,19.30
2015,06,14,10,26,19.30
2015,06,14,10,27,19.30
2015,06,14,10,28,19.30
2015,06,14,10,29,19.30
2015,06,14,10,30,19.40
2015,06,14,10,31,19.40
2015,06,14,10,32,19.40
2015,06,14,10,33,19.40
2015,06,14,10,34,19.50
2015,06,14,10,35,19.50
2015,06,14,10,36,19.50
2015,06,14,10,37,19.50
2015,06,14,10,38,19.50
2015,06,14,10,39,19.50
2015,06,14,10,40,19.60
2015,06,14,10,41,19.60
2015,06,14,10,42,19.60
2015,06,14,10,43,19.60
2015,06,14,10,44,19.60
2015,06,14,10,45,19.60
2015,06,14,10,46,19.60
2015,06,14,10,47,19.60
2015,06,14,10,48,19.70
2015,06,14,10,49,19.70
2015,06,14,10,50,19.80
2015,06,14,10,51,19.80
2015,06,14,10,52,19.90
2015,06,14,10,53,20.00
2015,06,14,10,54,20.10
2015,06,14,10,55,20.20
2015,06,14,10,56,20.30
2015,06,14,10,57,20.40
2015,06,14,10,58,20.40
2015,06,14,10,59,20.50
2015,06,14,11,00,20.50
2015,06,14,11,01,20.60
2015,06,14,11,02,20.60
2015,06,14,11,03,20.60
2015,06,14,11,04,20.60
2015,06,14,11,05,20.60
2015,06,14,11,06,20.60
2015,06,14,11,07,20.50
2015,06,14,11,08,20.50
2015,06,14,11,09,20.50
2015,06,14,11,10,20.50
2015,06,14,11,11,20.50
2015,06,14,11,12,20.60
2015,06,14,11,13,20.60
2015,06,14,11,14,20.60
2015,06,14,11,15,20.60
2015,06,14,11,16,20.50
2015,06,14,11,17,20.50
2015,06,14,11,18,20.40
2015,06,14,11,19,20.50
2015,06,14,11,20,20.50
2015,06,14,11,21,20.50
2015,06,14,11,22,20.60
2015,06,14,11,23,20.60
2015,06,14,11,24,20.70
2015,06,14,11,25,20.70
2015,06,14,11,26,20.80
2015,06,14,11,27,20.80
2015,06,14,11,28,20.90
2015,06,14,11,29,20.90
2015,06,14,11,30,20.90
2015,06,14,11,31,20.90
2015,06,14,11,32,20.90
2015,06,14,11,33,20.90
2015,06,14,11,34,20.80
2015,06,14,11,35,20.80
2015,06,14,11,36,20.80
2015,06,14,11,37,20.80
2015,06,14,11,38,20.80
2015,06,14,11,39,20.80
2015,06,14,11,40,20.80
2015,06,14,11,41,20.80
2015,06,14,11,42,20.90
2015,06,14,11,43,21.00
2015,06,14,11,44,21.00
2015,06,14,11,45,21.10
2015,06,14,11,46,21.10
2015,06,14,11,47,21.20
2015,06,14,11,48,21.30
2015,06,14,11,49,21.40
2015,06,14,11,50,21.40
2015,06,14,11,51,21.50
2015,06,14,11,52,21.60
2015,06,14,11,53,21.70
2015,06,14,11,54,21.70
2015,06,14,11,55,21.70
2015,06,14,11,56,21.80
2015,06,14,11,57,21.80
2015,06,14,11,58,21.70
2015,06,14,11,59,21.70
2015,06,14,12,00,21.80
2015,06,14,12,01,21.80
2015,06,14,12,02,21.80
2015,06,14,12,03,21.80
2015,06,14,12,04,21.80
2015,06,14,12,05,21.80
2015,06,14,12,06,21.80
2015,06,14,12,07,21.80
2015,06,14,12,08,21.70
2015,06,14,12,09,21.70
2015,06,14,12,10,21.70
2015,06,14,12,11,21.80
2015,06,14,12,12,21.80
2015,06,14,12,13,21.80
2015,06,14,12,14,21.80
2015,06,14,12,15,21.80
2015,06,14,12,16,21.80
2015,06,14,12,17,21.80
2015,06,14,12,18,21.80
2015,06,14,12,19,21.80
2015,06,14,12,20,21.80
2015,06,14,12,21,21.80
2015,06,14,12,22,21.90
2015,06,14,12,23,21.90
2015,06,14,12,24,21.90
2015,06,14,12,25,21.90
2015,06,14,12,26,21.90
2015,06,14,12,27,21.90
2015,06,14,12,28,21.90
2015,06,14,12,29,22.00
2015,06,14,12,30,21.90
2015,06,14,12,31,22.00
2015,06,14,12,32,22.00
2015,06,14,12,33,22.10
2015,06,14,12,34,22.10
2015,06,14,12,35,22.10
2015,06,14,12,36,22.20
2015,06,14,12,37,22.20
2015,06,14,12,38,22.20
2015,06,14,12,39,22.20
2015,06,14,12,40,22.20
2015,06,14,12,41,22.20
2015,06,14,12,42,22.20
2015,06,14,12,43,22.30
2015,06,14,12,44,22.30
2015,06,14,12,45,22.40
2015,06,14,12,46,22.40
2015,06,14,12,47,22.40
2015,06,14,12,48,22.40
2015,06,14,12,49,22.40
2015,06,14,12,50,22.40
2015,06,14,12,51,22.50
2015,06,14,12,52,22.60
2015,06,14,12,53,22.60
2015,06,14,12,54,22.60
2015,06,14,12,55,22.70
2015,06,14,12,56,22.70
2015,06,14,12,57,22.70
2015,06,14,12,58,22.70
2015,06,14,12,59,22.70
2015,06,14,13,00,22.80
2015,06,14,13,01,22.80
2015,06,14,13,02,22.80
2015,06,14,13,03,22.70
2015,06,14,13,04,22.60
2015,06,14,13,05,22.60
2015,06,14,13,06,22.60
2015,06,14,13,07,22.60
2015,06,14,13,08,22.60
2015,06,14,13,09,22.70
2015,06,14,13,10,22.80
2015,06,14,13,11,22.80
2015,06,14,13,12,22.90
2015,06,14,13,13,22.90
2015,06,14,13,14,23.00
2015,06,14,13,15,23.00
2015,06,14,13,16,23.00
2015,06,14,13,17,23.00
2015,06,14,13,18,22.90
2015,06,14,13,19,22.80
2015,06,14,13,20,22.80
2015,06,14,13,21,22.80
2015,06,14,13,22,22.70
2015,06,14,13,23,22.60
2015,06,14,13,24,22.60
2015,06,14,13,25,22.60
2015,06,14,13,26,22.70
2015,06,14,13,27,22.70
2015,06,14,13,28,22.70
2015,06,14,13,29,22.80
2015,06,14,13,30,22.80
2015,06,14,13,31,22.80
2015,06,14,13,32,22.80
2015,06,14,13,33,22.80
2015,06,14,13,34,22.90
2015,06,14,13,35,23.00
2015,06,14,13,36,23.00
2015,06,14,13,37,22.90
2015,06,14,13,38,23.00
2015,06,14,13,39,23.00
2015,06,14,13,40,23.00
2015,06,14,13,41,23.10
2015,06,14,13,42,23.30
2015,06,14,13,43,23.40
2015,06,14,13,44,23.50
2015,06,14,13,45,23.50
2015,06,14,13,46,23.50
2015,06,14,13,47,23.60
2015,06,14,13,48,23.70
2015,06,14,13,49,23.80
2015,06,14,13,50,23.80
2015,06,14,13,51,23.90
2015,06,14,13,52,23.80
2015,06,14,13,53,23.70
2015,06,14,13,54,23.60
2015,06,14,13,55,23.40
2015,06,14,13,56,23.30
2015,06,14,13,57,23.20
2015,06,14,13,58,23.10
2015,06,14,13,59,22.90
2015,06,14,14,00,22.80
2015,06,14,14,01,22.80
2015,06,14,14,02,22.70
2015,06,14,14,03,22.60
2015,06,14,14,04,22.40
2015,06,14,14,05,22.40
2015,06,14,14,06,22.50
2015,06,14,14,07,22.60
2015,06,14,14,08,22.60
2015,06,14,14,09,22.60
2015,06,14,14,10,22.60
2015,06,14,14,11,22.60
2015,06,14,14,12,22.50
2015,06,14,14,13,22.50
2015,06,14,14,14,22.50
2015,06,14,14,15,22.60
2015,06,14,14,16,22.50
2015,06,14,14,17,22.50
2015,06,14,14,18,22.40
2015,06,14,14,19,22.30
2015,06,14,14,20,22.30
2015,06,14,14,21,22.40
2015,06,14,14,22,22.50
2015,06,14,14,23,22.60
2015,06,14,14,24,22.70
2015,06,14,14,25,22.60
2015,06,14,14,26,22.70
2015,06,14,14,27,22.70
2015,06,14,14,28,22.70
2015,06,14,14,29,22.70
2015,06,14,14,30,22.60
2015,06,14,14,31,22.50
2015,06,14,14,32,22.40
2015,06,14,14,33,22.40
2015,06,14,14,34,22.30
2015,06,14,14,35,22.20
2015,06,14,14,36,22.20
2015,06,14,14,37,22.30
2015,06,14,14,38,22.20
2015,06,14,14,39,22.00
2015,06,14,14,40,21.80
2015,06,14,14,41,21.80
2015,06,14,14,42,21.80
2015,06,14,14,43,21.90
2015,06,14,14,44,21.90
2015,06,14,14,45,21.90
2015,06,14,14,46,22.00
2015,06,14,14,47,22.10
2015,06,14,14,48,21.90
2015,06,14,14,49,21.80
2015,06,14,14,50,21.90
2015,06,14,14,51,21.90
2015,06,14,14,52,22.00
2015,06,14,14,53,22.10
2015,06,14,14,54,22.20
2015,06,14,14,55,22.20
2015,06,14,14,56,22.20
2015,06,14,14,57,22.30
2015,06,14,14,58,22.30
2015,06,14,14,59,22.40
2015,06,14,15,00,22.50
2015,06,14,15,01,22.50
2015,06,14,15,02,22.50
2015,06,14,15,03,22.60
2015,06,14,15,04,22.60
2015,06,14,15,05,22.60
2015,06,14,15,06,22.60
2015,06,14,15,07,22.70
2015,06,14,15,08,22.70
2015,06,14,15,09,22.70
2015,06,14,15,10,22.70
2015,06,14,15,11,22.80
2015,06,14,15,12,22.90
2015,06,14,15,13,23.00
2015,06,14,15,14,23.00
2015,06,14,15,15,23.00
2015,06,14,15,16,23.10
2015,06,14,15,17,23.10
2015,06,14,15,18,23.20
2015,06,14,15,19,23.20
2015,06,14,15,20,23.30
2015,06,14,15,21,23.40
2015,06,14,15,22,23.50
2015,06,14,15,23,23.60
2015,06,14,15,24,23.50
2015,06,14,15,25,23.50
2015,06,14,15,26,23.40
2015,06,14,15,27,23.20
2015,06,14,15,28,23.10
2015,06,14,15,29,23.10
2015,06,14,15,30,22.90
2015,06,14,15,31,22.70
2015,06,14,15,32,22.50
2015,06,14,15,33,22.30
2015,06,14,15,34,22.30
2015,06,14,15,35,22.20
2015,06,14,15,36,22.20
2015,06,14,15,37,22.20
2015,06,14,15,38,22.20
2015,06,14,15,39,22.20
2015,06,14,15,40,22.10
2015,06,14,15,41,22.10
2015,06,14,15,42,22.10
2015,06,14,15,43,22.20
2015,06,14,15,44,22.30
2015,06,14,15,45,22.30
2015,06,14,15,46,22.30
2015,06,14,15,47,22.40
2015,06,14,15,48,22.40
2015,06,14,15,49,22.40
2015,06,14,15,50,22.40
2015,06,14,15,51,22.30
2015,06,14,15,52,22.40
2015,06,14,15,53,22.40
2015,06,14,15,54,22.40
2015,06,14,15,55,22.50
2015,06,14,15,56,22.50
2015,06,14,15,57,22.50
2015,06,14,15,58,22.60
2015,06,14,15,59,22.60
2015,06,14,16,00,22.60
2015,06,14,16,01,22.60
2015,06,14,16,02,22.60
2015,06,14,16,03,22.50
2015,06,14,16,04,22.40
2015,06,14,16,05,22.40
2015,06,14,16,06,22.50
2015,06,14,16,07,22.50
2015,06,14,16,08,22.50
2015,06,14,16,09,22.50
2015,06,14,16,10,22.60
2015,06,14,16,11,22.70
2015,06,14,16,12,22.80
2015,06,14,16,13,22.90
2015,06,14,16,14,23.00
2015,06,14,16,15,23.00
2015,06,14,16,16,23.10
2015,06,14,16,17,23.10
2015,06,14,16,18,23.10
2015,06,14,16,19,23.10
2015,06,14,16,20,23.20
2015,06,14,16,21,23.30
2015,06,14,16,22,23.30
2015,06,14,16,23,23.30
2015,06,14,16,24,23.30
2015,06,14,16,25,23.20
2015,06,14,16,26,23.20
2015,06,14,16,27,23.20
2015,06,14,16,28,23.20
2015,06,14,16,29,23.10
2015,06,14,16,30,23.00
2015,06,14,16,31,23.00
2015,06,14,16,32,23.10
2015,06,14,16,33,23.20
2015,06,14,16,34,23.30
2015,06,14,16,35,23.40
2015,06,14,16,36,23.40
2015,06,14,16,37,23.30
2015,06,14,16,38,23.30
2015,06,14,16,39,23.20
2015,06,14,16,40,23.30
2015,06,14,16,41,23.30
2015,06,14,16,42,23.30
2015,06,14,16,43,23.30
2015,06,14,16,44,23.20
2015,06,14,16,45,23.20
2015,06,14,16,46,23.10
2015,06,14,16,47,23.10
2015,06,14,16,48,23.20
2015,06,14,16,49,23.30
2015,06,14,16,50,23.40
2015,06,14,16,51,23.40
2015,06,14,16,52,23.50
2015,06,14,16,53,23.50
2015,06,14,16,54,23.50
2015,06,14,16,55,23.50
2015,06,14,16,56,23.50
2015,06,14,16,57,23.40
2015,06,14,16,58,23.40
2015,06,14,16,59,23.30
2015,06,14,17,00,23.30
2015,06,14,17,01,23.30
2015,06,14,17,02,23.30
2015,06,14,17,03,23.30
2015,06,14,17,04,23.40
2015,06,14,17,05,23.40
2015,06,14,17,06,23.30
2015,06,14,17,07,23.20
2015,06,14,17,08,23.20
2015,06,14,17,09,23.20
2015,06,14,17,10,23.20
2015,06,14,17,11,23.10
2015,06,14,17,12,23.10
2015,06,14,17,13,23.10
2015,06,14,17,14,23.00
2015,06,14,17,15,23.00
2015,06,14,17,16,23.00
2015,06,14,17,17,23.10
2015,06,14,17,18,23.10
2015,06,14,17,19,23.10
2015,06,14,17,20,23.10
2015,06,14,17,21,23.10
2015,06,14,17,22,23.00
2015,06,14,17,23,23.00
2015,06,14,17,24,23.00
2015,06,14,17,25,22.90
2015,06,14,17,26,22.90
2015,06,14,17,27,23.00